Location: Newark
(46.7636°N, 1.8358°W)
Time: 18:10:14
(UTC+00:00)

Vanguard 2 Rocket - Pass Details

Date: 21 October 2019
Orbit: 554 x 3326 km, 32.9° (Epoch: 21 November)

Event Time Altitude Azimuth Distance (km) Brightness Sun altitude
Rises 16:01:57 0° 276° (W) 7,160 12.5 10.1°
Reaches altitude 10° 16:09:52 10° 260° (W) 5,772 12.9 8.9°
Maximum altitude 16:18:09 16° 230° (SW) 4,705 12.4 7.6°
Drops below altitude 10° 16:24:56 10° 199° (SSW) 4,550 11.2 6.5°
Sets 16:29:57 0° 178° (S) 5,005 11.0 5.7°
